FW7889 Weather Reports


time (UTC)temp
C
wind
direction
speed
KPH
gust
KPH
rain 1hr
cm
rain 24hr
cm
rain mn
cm
humidity
%
barometer
mb
20260508021700 2 276 0.0 1.6 0.00 0.08 0.08 84 1063.9
20260508020659 2 277 0.0 1.6 0.00 0.08 0.08 84 1063.7
20260508015654 2 280 0.0 0.0 0.00 0.08 0.08 81 1063.7
20260508014653 2 274 0.0 0.0 0.00 0.08 0.08 81 1063.8
20260508013652 3 291 1.6 1.6 0.00 0.08 0.08 82 1063.8
20260508012646 3 281 0.0 1.6 0.00 0.08 0.08 77 1063.9
20260508011641 3 281 1.6 1.6 0.00 0.08 0.08 77 1063.7
20260508010641 3 278 0.0 1.6 0.00 0.08 0.08 75 1063.7
20260508005641 4 278 1.6 1.6 0.00 0.08 0.08 74 1063.5
20260508004639 4 275 0.0 0.0 0.00 0.08 0.08 73 1063.5
20260508003639 5 264 0.0 1.6 0.00 0.08 0.08 73 1063.3
20260508002638 5 276 0.0 0.0 0.00 0.08 0.08 74 1063.1
20260508001637 6 277 0.0 0.0 0.00 0.08 0.08 68 1062.8
20260508000635 6 287 1.6 3.2 0.00 0.08 0.08 61 1063.0
20260507235635 6 279 0.0 0.0 0.00 0.08 0.08 59 1063.1
20260507234635 7 296 3.2 4.8 0.00 0.08 0.08 58 1063.1
20260507233635 7 304 4.8 4.8 0.00 0.08 0.08 56 1063.3
20260507232635 7 285 1.6 1.6 0.00 0.08 0.08 55 1063.1
20260507231635 7 301 4.8 4.8 0.00 0.08 0.08 54 1063.2
20260507230634 7 285 0.0 0.0 0.00 0.08 0.08 54 1063.3
20260507225631 8 313 4.8 4.8 0.00 0.08 0.08 54 1063.5
20260507224629 8 265 3.2 3.2 0.00 0.08 0.08 54 1063.3
20260507223628 8 303 3.2 3.2 0.00 0.08 0.08 53 1063.3
20260507222627 8 12 6.4 9.7 0.00 0.08 0.08 51 1063.1
20260507221626 8 333 8.0 9.7 0.00 0.08 0.08 52 1063.4
20260507220626 8 309 3.2 3.2 0.00 0.08 0.08 53 1063.5
20260507215625 8 315 3.2 3.2 0.00 0.08 0.08 52 1063.4
20260507214625 8 342 9.7 11.3 0.00 0.08 0.08 51 1063.3
20260507213624 8 316 6.4 9.7 0.00 0.08 0.08 52 1063.2
20260507212623 8 319 8.0 11.3 0.00 0.08 0.08 53 1063.5
20260507211622 8 337 12.9 16.1 0.00 0.08 0.08 51 1063.5
20260507210621 8 286 3.2 4.8 0.00 0.08 0.08 54 1063.3
20260507205620 9 310 12.9 14.5 0.00 0.08 0.08 49 1063.2
20260507204618 8 314 12.9 14.5 0.00 0.08 0.08 48 1063.4
20260507203614 8 249 11.3 14.5 0.00 0.08 0.08 50 1063.2
20260507202612 9 314 8.0 11.3 0.00 0.08 0.08 49 1063.4
20260507201610 10 303 6.4 8.0 0.00 0.08 0.08 49 1063.0
20260507200608 8 348 8.0 11.3 0.00 0.08 0.08 52 1063.3
20260507195608 8 273 1.6 1.6 0.00 0.08 0.08 51 1063.4
20260507194607 9 227 17.7 24.1 0.00 0.08 0.08 50 1063.3
20260507193606 8 298 12.9 14.5 0.00 0.08 0.08 51 1063.5
20260507192605 8 332 8.0 9.7 0.00 0.08 0.08 51 1063.6
20260507191603 8 274 6.4 8.0 0.00 0.08 0.08 53 1063.8
20260507190603 8 230 9.7 14.5 0.00 0.08 0.08 53 1063.8
20260507185600 8 303 6.4 9.7 0.00 0.08 0.08 53 1064.1
20260507184555 8 305 6.4 8.0 0.00 0.08 0.08 53 1063.8
20260507183554 8 340 8.0 9.7 0.00 0.08 0.08 57 1063.9
20260507182553 9 323 4.8 8.0 0.00 0.08 0.08 57 1063.8
20260507181552 7 322 4.8 8.0 0.00 0.08 0.08 58 1064.2
20260507180551 8 337 4.8 4.8 0.00 0.08 0.08 56 1063.7
20260507175550 7 282 3.2 4.8 0.00 0.08 0.08 57 1063.8
20260507174550 8 244 11.3 14.5 0.00 0.08 0.08 55 1063.7
20260507173545 8 331 8.0 9.7 0.00 0.08 0.08 58 1064.1
20260507172544 8 242 19.3 24.1 0.00 0.08 0.08 57 1064.1
20260507171542 8 320 3.2 4.8 0.00 0.08 0.08 60 1064.1
20260507170542 8 275 4.8 4.8 0.00 0.08 0.08 62 1063.9
20260507165541 7 323 11.3 12.9 0.00 0.08 0.08 62 1064.2
20260507164539 7 299 8.0 12.9 0.00 0.08 0.08 64 1064.6
20260507163534 6 254 3.2 4.8 0.00 0.08 0.08 67 1064.6
20260507162532 6 329 6.4 9.7 0.00 0.08 0.08 66 1064.7
20260507161531 7 28 8.0 9.7 0.00 0.08 0.08 64 1064.5
20260507160530 6 298 4.8 8.0 0.00 0.08 0.08 66 1064.5
20260507155528 6 341 6.4 8.0 0.00 0.08 0.08 68 1064.6
20260507154527 6 28 4.8 8.0 0.00 0.08 0.08 69 1064.7
20260507153528 5 335 4.8 8.0 0.00 0.08 0.08 68 1065.0
20260507152525 6 293 4.8 8.0 0.00 0.08 0.08 69 1064.9
20260507151524 5 297 3.2 3.2 0.00 0.08 0.08 73 1065.2
20260507150524 5 278 1.6 3.2 0.00 0.08 0.08 71 1065.0
20260507145521 5 314 8.0 9.7 0.00 0.08 0.08 69 1065.2
20260507144516 5 250 9.7 12.9 0.00 0.08 0.08 70 1064.9
20260507143511 5 303 8.0 9.7 0.00 0.08 0.08 71 1065.1
20260507142509 5 348 4.8 8.0 0.00 0.08 0.08 69 1065.2
20260507141508 6 265 9.7 11.3 0.00 0.08 0.08 69 1064.8
20260507140508 6 285 9.7 16.1 0.00 0.08 0.08 69 1064.8
20260507135508 6 254 14.5 14.5 0.00 0.08 0.08 69 1064.8
20260507134508 5 321 4.8 4.8 0.00 0.08 0.08 71 1064.9
20260507133505 5 329 8.0 12.9 0.00 0.08 0.08 70 1064.7
20260507132500 5 272 3.2 3.2 0.00 0.08 0.08 72 1064.6
20260507131459 5 7 8.0 9.7 0.00 0.08 0.08 72 1064.7
20260507130458 5 319 8.0 11.3 0.00 0.08 0.08 76 1064.8
20260507125455 4 348 8.0 9.7 0.00 0.08 0.08 77 1064.5
20260507124454 3 267 4.8 4.8 0.00 0.08 0.08 80 1064.8
20260507123455 3 283 1.6 1.6 0.00 0.08 0.08 83 1064.5
20260507122452 3 285 0.0 1.6 0.00 0.08 0.08 82 1064.5
20260507121450 3 259 4.8 4.8 0.00 0.08 0.08 82 1064.8
20260507120449 3 284 1.6 1.6 0.00 0.08 0.08 83 1064.7
20260507115448 3 266 0.0 0.0 0.00 0.08 0.08 84 1064.6
20260507114445 2 315 3.2 3.2 0.00 0.08 0.08 85 1064.9
20260507113445 2 269 0.0 0.0 0.00 0.08 0.08 86 1065.1
20260507112440 2 296 1.6 1.6 0.00 0.08 0.08 89 1065.0
20260507111440 1 294 1.6 1.6 0.00 0.08 0.08 94 1064.9
20260507110438 1 278 0.0 0.0 0.00 0.08 0.08 98 1065.2
20260507105438 0 285 0.0 0.0 0.00 0.08 0.08 99 1065.0
20260507104437 0 272 0.0 0.0 0.00 0.08 0.08 99 1064.8
20260507103435 0 266 0.0 0.0 0.00 0.08 0.08 99 1064.8
20260507102434 0 279 1.6 1.6 0.00 0.08 0.08 99 1064.8
20260507101431 0 276 0.0 0.0 0.00 0.08 0.08 99 1064.7
20260507100431 0 276 0.0 1.6 0.00 0.08 0.08 99 1064.7
20260507095427 0 275 0.0 0.0 0.00 0.08 0.08 99 1064.8
20260507094426 0 269 0.0 0.0 0.00 0.08 0.08 99 1064.7
20260507093421 0 261 0.0 1.6 0.00 0.08 0.08 99 1064.8
20260507092420 0 266 0.0 0.0 0.00 0.08 0.08 99 1064.6
20260507091420 0 264 0.0 1.6 0.00 0.08 0.08 99 1064.8
20260507090418 0 269 0.0 0.0 0.00 0.08 0.08 99 1064.3
20260507085418 0 269 1.6 1.6 0.00 0.08 0.08 99 1064.7
20260507084417 0 244 4.8 4.8 0.00 0.08 0.08 99 1064.7
20260507083417 1 261 1.6 1.6 0.00 0.08 0.08 99 1064.6
20260507082415 1 277 0.0 1.6 0.00 0.08 0.08 99 1064.8
20260507081414 1 274 0.0 0.0 0.00 0.08 0.08 99 1064.7
20260507080413 1 266 0.0 0.0 0.00 0.08 0.08 98 1064.3
20260507075410 1 249 3.2 3.2 0.00 0.08 0.08 98 1064.2
20260507074410 2 269 0.0 1.6 0.00 0.08 0.08 98 1064.4
20260507073410 2 241 3.2 3.2 0.00 0.08 0.08 99 1064.3
20260507072404 2 267 1.6 1.6 0.00 0.08 0.08 99 1064.2
20260507071404 2 263 4.8 4.8 0.00 0.08 0.08 99 1063.9
20260507070404 3 268 1.6 1.6 0.00 0.08 0.08 99 1064.1
20260507065403 3 254 3.2 3.2 0.00 0.08 0.08 99 1064.2
20260507064359 3 269 1.6 1.6 0.00 0.08 0.08 99 1064.3
20260507063359 3 273 1.6 1.6 0.00 0.08 0.08 99 1064.2
20260507062358 3 269 1.6 1.6 0.00 0.08 0.08 99 1064.3
20260507061354 3 270 0.0 0.0 0.00 0.08 0.08 99 1064.2
20260507060355 3 273 0.0 0.0 0.00 0.08 0.08 99 1064.2
20260507055352 3 295 3.2 3.2 0.00 0.08 0.08 99 1064.3
20260507054351 3 320 4.8 4.8 0.18 0.08 0.08 99 1064.3
20260507053347 4 312 1.6 1.6 0.00 0.05 0.05 99 1064.2
20260507052341 4 303 1.6 3.2 0.13 0.05 0.05 99 1064.1
20260507051337 4 265 1.6 3.2 0.00 0.03 0.03 99 1064.2
20260507050335 4 285 0.0 1.6 0.00 0.03 0.03 99 1063.9
20260507045335 5 267 1.6 3.2 0.18 0.03 0.03 99 1063.9
20260507044335 5 265 3.2 3.2 0.00 0.00 0.00 99 1063.9
20260507043333 5 273 1.6 1.6 0.00 0.00 0.00 99 1063.9
20260507042331 5 288 1.6 1.6 0.00 0.00 0.00 99 1063.7
20260507041331 5 264 0.0 1.6 0.00 0.00 0.00 99 1063.7
20260507040330 5 263 1.6 1.6 0.00 0.00 0.00 99 1063.9
20260507035327 5 267 1.6 1.6 0.00 2.06 2.06 99 1063.6
20260507034322 5 258 1.6 1.6 0.00 2.06 2.06 99 1064.2
20260507033318 5 266 0.0 0.0 0.00 2.06 2.06 99 1063.8
20260507032316 5 263 1.6 1.6 0.00 2.06 2.06 99 1064.1
20260507031316 5 267 1.6 1.6 0.00 2.06 2.06 99 1063.8
20260507030316 5 274 1.6 1.6 0.00 2.06 2.06 99 1063.9
20260507025315 5 269 0.0 0.0 0.00 2.06 2.06 99 1064.2
20260507024315 5 270 0.0 0.0 0.00 2.06 2.06 99 1064.2
20260507023312 5 270 0.0 1.6 0.00 2.06 2.06 99 1064.2